This is the latest recevied weather packets stored in our database for station/object ES0THZ-13. If no packets are shown the sender has not sent any weather packets the latest 10 day(s).
| Time | Temp. | Humidity | Pressure | Rain* | Wind** | Luminosity | Snow |
|---|---|---|---|---|---|---|---|
| 1777980381 | 16.67° C | 65% | 1002.2 hPa | - | - | - | - |
| 1777979331 | 15.56° C | 66% | 1002.6 hPa | - | - | - | - |
| 1777978331 | 16.67° C | 66% | 1002.5 hPa | - | - | - | - |
| 1777977261 | 16.67° C | 67% | 1001.9 hPa | - | - | - | - |
| 1777976291 | 16.67° C | 67% | 1001.4 hPa | - | - | - | - |
| 1777975281 | 16.11° C | 68% | 1001.7 hPa | - | - | - | - |
| 1777974221 | 16.11° C | 69% | 1001.6 hPa | - | - | - | - |
| 1777973146 | 16.11° C | 70% | 1001.6 hPa | - | - | - | - |
| 1777972056 | 15.56° C | 72% | 1000.6 hPa | - | - | - | - |
| 1777971061 | 15° C | 72% | 1001.1 hPa | - | - | - | - |
| 1777970036 | 14.44° C | 73% | 1000 hPa | - | - | - | - |
| 1777969041 | 15° C | 74% | 1001.8 hPa | - | - | - | - |
| 1777967921 | 13.89° C | 75% | 1001 hPa | - | - | - | - |
| 1777966831 | 13.89° C | 75% | 1000.5 hPa | - | - | - | - |
| 1777965776 | 13.33° C | 76% | 1001.7 hPa | - | - | - | - |
| 1777964631 | 13.33° C | 76% | 1002.4 hPa | - | - | - | - |
| 1777963576 | 13.33° C | 76% | 1000.1 hPa | - | - | - | - |
| 1777962556 | 13.33° C | 77% | 1001.5 hPa | - | - | - | - |
| 1777961476 | 12.78° C | 77% | 1000.9 hPa | - | - | - | - |
| 1777960436 | 12.78° C | 78% | 1000.7 hPa | - | - | - | - |
| 1777959296 | 11.67° C | 81% | 1001.6 hPa | - | - | - | - |
| 1777958198 | 11.67° C | 81% | 1000.7 hPa | - | - | - | - |
| 1777957216 | 11.67° C | 82% | 1000.1 hPa | - | - | - | - |
| 1777956116 | 11.67° C | 82% | - | - | - | - | - |
| 1777955021 | 11.67° C | 82% | 1000.5 hPa | - | - | - | - |
* Rain since midnight (hover to see other rain measurements)
** Current wind speed in m/s (hover to see current wind gust speed)